This demonstration page uses our WeatherBlox Daily Observations layout. Learn more.

Left ArrowRight Arrow

Hourly Observations for November 30, 2021

Temp ( °F °C ) Dew Point ( °F °C ) Humidity (%) Winds ( mph kmh ) Pressure ( in mb ) Visibility ( mi km ) Precip ( " mm )
12:53 am 00:53 Clear 31 -0.6 28 -2.2 89 89 SE 3 6 30.15 1021 N/A N/A
1:53 am 01:53 Clear 31 -0.6 27 -2.8 85 85 N N/A 30.16 1021 10 16 N/A
2:53 am 02:53 Clear 29 -1.7 26 -3.3 89 89 N N/A 30.16 1022 10 16 N/A
3:53 am 03:53 Clear 29 -1.7 27 -2.8 92 92 N N/A 30.16 1021 10 16 N/A
4:53 am 04:53 Clear 29 -1.7 27 -2.8 92 92 N N/A 30.16 1022 10 16 N/A
5:53 am 05:53 Clear 33 0.6 28 -2.2 82 82 N N/A 30.16 1022 10 16 N/A
6:53 am 06:53 Sunny 32 undefined 28 -2.2 85 85 N N/A 30.17 1022 10 16 N/A
7:53 am 07:53 Sunny 41 5 33 0.6 73 73 SSE 5 7 30.18 1022 10 16 N/A
8:53 am 08:53 Sunny 49 9.4 34 1.1 56 56 SSW 7 11 30.19 1022 10 16 N/A
9:53 am 09:53 Sunny 55 12.8 37 2.8 51 51 SW 7 11 30.19 1022 10 16 N/A
10:53 am 10:53 Sunny 59 15 40 4.4 49 49 W 7 11 30.17 1022 10 16 N/A
11:53 am 11:53 Sunny 61 16.1 40 4.4 46 46 W 7 11 30.15 1021 10 16 N/A
12:53 pm 12:53 Sunny 63 17.2 40 4.4 43 43 N N/A 30.13 1020 10 16 N/A
1:53 pm 13:53 Sunny 65 18.3 41 5 42 42 VRB 3 6 30.12 1020 10 16 N/A
2:53 pm 14:53 Sunny 66 18.9 41 5 40 40 WSW 3 6 30.13 1020 10 16 N/A
3:53 pm 15:53 Sunny 65 18.3 43 6.1 45 45 N 3 6 30.14 1021 10 16 N/A
4:53 pm 16:53 Clear 54 12.2 43 6.1 67 67 N N/A 30.14 1021 10 16 N/A
5:53 pm 17:53 Clear 50 10 42 5.6 74 74 N N/A 30.16 1021 10 16 N/A
6:53 pm 18:53 Clear 48 8.9 41 5 77 77 S 3 6 30.17 1022 10 16 N/A
7:53 pm 19:53 Clear 47 8.3 41 5 80 80 SE 3 6 30.16 1021 10 16 N/A
8:53 pm 20:53 Clear 42 5.6 39 3.9 89 89 N N/A 30.15 1021 10 16 N/A
9:53 pm 21:53 Clear 40 4.4 37 2.8 89 89 N N/A 30.15 1021 10 16 N/A
10:53 pm 22:53 Clear 38 3.3 37 2.8 97 97 N N/A 30.16 1021 10 16 N/A

Powered by AerisWeather